Weather History for Fort Hood, TX

Change the Weather History Date:

Sunday, August 11, 2013

  Actual Average Record
Temperature  
Mean Temperature 86 °F -  
Max Temperature 96 °F 94 °F 102 °F (1999)
Min Temperature 75 °F 72 °F 69 °F (2003)
Cooling Degree Days 20    
Growing Degree Days 36 (Base 50)    
Moisture  
Dew Point 68 °F    
Average Humidity 59    
Maximum Humidity 83    
Minimum Humidity 34    
Precipitation  
Precipitation 0.00 in - - ()
Sea Level Pressure  
Sea Level Pressure 30.00 in    
Wind  
Wind Speed 5 mph (SE)    
Max Wind Speed 20 mph    
Max Gust Speed -    
Visibility 7 miles    
Events      
Averages and records for this station are not official NWS values.
T = Trace of Precipitation, MM = Missing Value Source: NWS Daily Summary

Daily Weather History Graph

Daily Weather History Graph

Search for Another Location

Airport:

Trip Planner

Search our weather history database for the weather conditions in past years. The results will help you decide how hot, cold, wet, or windy it might be!

Date:

Astronomy

Aug. 11, 2013 Rise Set
Actual Time 6:54 AM CDT 8:17 PM CDT
Civil Twilight 6:29 AM CDT 8:43 PM CDT
Nautical Twilight 5:58 AM CDT 9:13 PM CDT
Astronomical Twilight 5:26 AM CDT 9:45 PM CDT
Moon 11:20 AM CDT (8/11) 10:59 PM CDT (8/11)
Length of Visible Light 14h 13m
Length of Day
13h 22m
Waxing Crescent, 22% of the Moon is Illuminated
Aug 11
Waxing Crescent
Aug 14
First Quarter
Aug 20
Full
Aug 28
Last Quarter
Sep 5
New

Hourly Weather History & Observations

Time (CDT) Temp. Heat Index Dew Point Humidity Pressure Visibility Wind Dir Wind Speed Gust Speed Precip Events Conditions
12:55 AM 80.6 °F 83.9 °F 69.8 °F 70% 30.04 in 7.0 mi SE 3.5 mph - N/A   Partly Cloudy
1:55 AM 78.8 °F - 66.2 °F 65% 29.92 in 7.0 mi Calm Calm - N/A   Partly Cloudy
2:55 AM 77.0 °F - 66.2 °F 69% 29.91 in 7.0 mi SSE 3.5 mph - N/A   Clear
3:55 AM 75.2 °F - 66.2 °F 73% 29.91 in 7.0 mi South 3.5 mph - N/A   Clear
4:55 AM 75.2 °F - 66.2 °F 73% 29.91 in 7.0 mi Calm Calm - N/A   Clear
5:55 AM 75.2 °F - 69.8 °F 83% 29.93 in 7.0 mi Calm Calm - N/A   Clear
6:55 AM 75.2 °F - 69.8 °F 83% 29.93 in 7.0 mi Calm Calm - N/A   Scattered Clouds
7:55 AM 77.0 °F - 69.8 °F 78% 29.95 in 7.0 mi Calm Calm - N/A   Scattered Clouds
8:55 AM 82.4 °F 87.2 °F 71.6 °F 70% 30.08 in 7.0 mi South 8.1 mph - N/A   Partly Cloudy
9:55 AM 86.0 °F 91.8 °F 71.6 °F 62% 30.09 in 7.0 mi South 8.1 mph - N/A   Partly Cloudy
10:55 AM 89.6 °F 96.2 °F 71.6 °F 55% 30.08 in 7.0 mi SW 5.8 mph - N/A   Mostly Cloudy
11:55 AM 91.4 °F 96.8 °F 69.8 °F 49% 30.07 in 7.0 mi Variable 4.6 mph - N/A   Mostly Cloudy
12:55 PM 91.4 °F 96.8 °F 69.8 °F 49% 30.06 in 7.0 mi Calm Calm - N/A   Mostly Cloudy
1:55 PM 93.2 °F 98.8 °F 69.8 °F 46% 30.04 in 7.0 mi SSE 8.1 mph - N/A   Mostly Cloudy
2:55 PM 93.2 °F 97.7 °F 68.0 °F 44% 30.02 in 7.0 mi East 11.5 mph - N/A   Mostly Cloudy
3:55 PM 96.8 °F 100.7 °F 66.2 °F 37% 29.99 in 7.0 mi SE 4.6 mph - N/A   Scattered Clouds
4:55 PM 96.8 °F 99.0 °F 64.4 °F 34% 29.99 in 7.0 mi ESE 10.4 mph - N/A   Scattered Clouds
5:55 PM 96.8 °F 99.0 °F 64.4 °F 34% 29.98 in 7.0 mi ENE 6.9 mph - N/A   Partly Cloudy
6:55 PM 96.8 °F 100.7 °F 66.2 °F 37% 29.97 in 7.0 mi East 6.9 mph - N/A   Partly Cloudy
7:55 PM 93.2 °F 96.2 °F 66.2 °F 41% 29.98 in 7.0 mi ESE 9.2 mph - N/A   Partly Cloudy
8:55 PM 87.8 °F 92.6 °F 69.8 °F 55% 30.00 in 7.0 mi SSE 19.6 mph - N/A   Partly Cloudy
9:55 PM 84.2 °F 88.4 °F 69.8 °F 62% 30.01 in 7.0 mi SSE 13.8 mph - N/A   Partly Cloudy
10:55 PM 82.4 °F 86.3 °F 69.8 °F 66% 30.04 in 7.0 mi South 9.2 mph - N/A   Clear
11:55 PM 80.6 °F 83.9 °F 69.8 °F 70% 30.05 in 7.0 mi South 5.8 mph - N/A   Clear